User: anonymous   Login
Location: Unspecified
(0.0000°N, 0.0000°E)
Time: 00:29:01
(UTC+00:00)
Language:

NIGERIASAT 2 - Orbit

View from above orbital plane
View from above orbital plane
View from above satellite
View from above satellite

Ground track
Ground track

The orbit data is extracted from the following two-line orbital elements,

1 37789U 11044B   18203.44240550  .00000011  00000-0  11227-4 0  9991
2 37789  97.9964 267.9567 0009917 210.2800 149.7835 14.62070750369503
Epoch (UTC): 22 July 2018 10:37:03
Eccentricity: 0.0009917
inclination: 97.9964°
perigee height: 679 km
apogee height: 693 km
right ascension of ascending node: 267.9567°
argument of perigee: 210.2800°
revolutions per day: 14.62070750
mean anomaly at epoch: 149.7835°
orbit number at epoch: 36950

The dashed part of the orbit path shows where the satellite is in the earth's shadow,  

DLR